[[{"header":{"parameterUnit":"m.s-1","parameterCategory":1,"la1":30.2991,"la2":30.254,"lo1":-89.0895,"lo2":-89.0444,"dy":0.0017,"dx":0.0017,"nx":28,"ny":28,"refTime":"2024-08-15T03:00:00:Z","depth":0,"parameterNumber":2,"parameterNumberName":"U-component_of_WINDS"},"data":[0,0,0,0,0,0,0,0,0,0,0,0,0,0,0,0,0,0,0,0,0,0,0,0,0,0,0,0,0,0,0,0,0,0,0,0,0,0,0,0,0,0,0,0,0,0,0,0,0,0,0,0,0,0,0,0,0,0,-0.6821,-0.6822,0,-0.6895,-0.6896,-0.6896,-0.6918,-0.6918,-0.6918,-0.6917,-0.6987,-0.6989,-0.6991,0,0,0,0,0,0,0,0,0,0,0,0,0,-0.6695,-0.6697,-0.6821,-0.6822,-0.6823,-0.6895,-0.6896,-0.6897,-0.6918,-0.6918,-0.6918,-0.6917,-0.6986,-0.6989,-0.6992,0,0,0,0,0,0,0,0,0,0,0,0,0,-0.6757,-0.6698,-0.6821,-0.6843,-0.6845,-0.6894,-0.6896,-0.6897,-0.6919,-0.6918,-0.6917,-0.6917,-0.6986,-0.6989,-0.6992,-0.7023,0,0,-0.7002,-0.7003,0,0,0,0,0,0,0,0,-0.6753,-0.6761,-0.6839,-0.6841,-0.6845,-0.6897,-0.6877,-0.6939,-0.6919,-0.6891,-0.6917,-0.6917,-0.6957,-0.6963,-0.6978,-0.7026,-0.7029,-0.7002,-0.7004,-0.7006,-0.7007,0,0,0,0,0,0,0,-0.6749,-0.6758,-0.685,-0.684,-0.6843,-0.6847,-0.6855,-0.6888,-0.6926,-0.6893,-0.6895,-0.6904,-0.6959,-0.6974,-0.6979,-0.703,-0.7002,-0.7005,-0.7007,-0.7008,-0.7108,-0.7108,0,0,0,0,0,0,-0.6742,-0.6755,-0.6848,-0.6852,-0.6797,-0.685,-0.6859,-0.6881,-0.6926,-0.6932,-0.6904,-0.6904,-0.6969,-0.6975,-0.6982,-0.7022,-0.7006,-0.7009,-0.7011,-0.7107,-0.7108,-0.7109,0,0,0,0,0,0,-0.6739,-0.675,-0.6845,-0.6804,-0.6817,-0.6853,-0.6877,-0.6882,-0.6898,-0.6934,-0.694,-0.6914,-0.6969,-0.6977,-0.7013,-0.7024,-0.701,-0.7013,-0.7106,-0.7107,-0.7108,-0.7101,0,0,0,0,0,0,-0.6735,-0.6749,-0.6762,-0.6804,-0.6819,-0.6876,-0.6877,-0.6884,-0.6904,-0.6906,-0.6945,-0.695,-0.6969,-0.7008,-0.7016,-0.7029,-0.7016,-0.7105,-0.7107,-0.7108,-0.71,-0.7102,-0.7103,0,0,0,0,0,-0.6731,-0.6756,-0.6763,-0.6774,-0.6837,-0.6877,-0.6885,-0.6908,-0.6905,-0.6918,-0.6941,-0.6949,-0.7021,-0.7011,-0.7021,-0.7034,-0.7105,-0.7106,-0.7108,-0.71,-0.7101,-0.7103,0,0,0,0,0,0,-0.6712,-0.6762,-0.677,-0.681,-0.6839,-0.6881,-0.6898,-0.6908,-0.6938,-0.6937,-0.6962,-0.6971,-0.7005,-0.7023,-0.7011,-0.7067,-0.7063,-0.7067,-0.7054,-0.7056,-0.7057,-0.7052,-0.7019,0,0,0,0,0,-0.6713,-0.6744,-0.6785,-0.6816,-0.683,-0.6862,-0.688,-0.6895,-0.6926,-0.6938,-0.6963,-0.6991,-0.702,-0.7039,-0.7067,-0.7103,-0.7111,-0.7116,-0.7117,-0.7118,-0.7121,-0.7141,-0.7144,-0.7114,-0.7114,-0.7114,0,0,-0.6715,-0.6746,-0.6763,-0.6813,-0.6838,-0.6867,-0.6872,-0.6903,-0.6925,-0.6942,-0.6978,-0.6997,-0.703,-0.7066,-0.7083,-0.7082,-0.7131,-0.712,-0.7121,-0.7123,-0.7143,-0.7146,-0.7148,-0.7115,-0.7114,-0.7114,0,0,-0.6733,-0.676,-0.679,-0.6814,-0.6852,-0.6872,-0.6879,-0.6919,-0.6933,-0.697,-0.6984,-0.7009,-0.7058,-0.7081,-0.7099,-0.7126,-0.7135,-0.7135,-0.7141,-0.716,-0.7162,-0.7165,-0.7174,-0.7178,-0.7137,-0.7137,-0.7137,0,-0.673,-0.6778,-0.6803,-0.6834,-0.6855,-0.6873,-0.6902,-0.6924,-0.6968,-0.6982,-0.6981,-0.7044,-0.7067,-0.7108,-0.7115,-0.7129,-0.7137,-0.7131,-0.716,-0.7163,-0.7165,-0.7175,-0.7178,-0.7137,-0.7137,-0.7137,-0.7137,0,-0.6772,-0.6804,-0.6823,-0.6868,-0.6891,-0.692,-0.6948,-0.6968,-0.6981,-0.7001,-0.7038,-0.7066,-0.7101,-0.7112,-0.7123,-0.7155,-0.7153,-0.7156,-0.7153,-0.7168,-0.7177,-0.7181,-0.7137,-0.7137,-0.7137,-0.7137,0,0,-0.6782,-0.684,-0.6847,-0.6867,-0.691,-0.6935,-0.6964,-0.7,-0.7017,-0.7046,-0.7071,-0.7113,-0.7116,-0.7136,-0.715,-0.7167,-0.7187,-0.7168,-0.7169,-0.7171,-0.7223,-0.7221,-0.7225,-0.7192,-0.7193,-0.7194,-0.722,0,-0.6806,-0.6863,-0.6886,-0.6931,-0.6961,-0.6978,-0.7004,-0.7032,-0.7051,-0.7078,-0.7098,-0.7128,-0.7129,-0.7142,-0.7159,-0.7181,-0.7198,-0.7179,-0.7215,-0.7216,-0.7207,-0.723,-0.7229,-0.7253,-0.7224,-0.7225,-0.7225,0,-0.6843,-0.6875,-0.6923,-0.6963,-0.6976,-0.6999,-0.7034,-0.706,-0.7091,-0.7104,-0.7127,-0.714,-0.717,-0.7165,-0.7207,-0.7194,-0.7209,-0.7222,-0.7223,-0.7228,-0.7222,-0.7236,-0.7261,-0.7265,-0.7231,-0.7231,-0.723,0,-0.6846,-0.69,-0.6937,-0.6954,-0.7,-0.7016,-0.7036,-0.7067,-0.7087,-0.7117,-0.713,-0.7162,-0.7179,-0.7203,-0.7224,-0.7218,-0.7263,-0.726,-0.7274,-0.7273,-0.7283,-0.7283,-0.7312,-0.7292,-0.7292,-0.7292,-0.7292,0,-0.6871,-0.69,-0.6939,-0.6961,-0.6994,-0.7019,-0.705,-0.7071,-0.7098,-0.7124,-0.714,-0.7163,-0.7189,-0.7215,-0.7231,-0.7263,-0.7271,-0.7281,-0.7285,-0.728,-0.7279,-0.7291,-0.7291,-0.7293,-0.7293,-0.7293,-0.7293,0,-0.688,-0.6908,-0.6949,-0.699,-0.7001,-0.7023,-0.7057,-0.7079,-0.7099,-0.7131,-0.7139,-0.717,-0.7202,-0.7225,-0.7265,-0.7276,-0.731,-0.7314,-0.73,-0.7303,-0.7316,-0.7314,-0.7354,-0.7361,-0.7336,-0.7336,-0.7337,0,-0.6895,-0.6918,-0.6963,-0.6982,-0.7002,-0.7032,-0.7054,-0.7079,-0.71,-0.7137,-0.7154,-0.7187,-0.7215,-0.7264,-0.7289,-0.7319,-0.7324,-0.7336,-0.7329,-0.7323,-0.7325,-0.7324,-0.7326,-0.7337,-0.7337,-0.7337,-0.7337,0,-0.6919,-0.6931,-0.6962,-0.6998,-0.7023,-0.7052,-0.7081,-0.7095,-0.7125,-0.7147,-0.7181,-0.7202,-0.7244,-0.7276,-0.7309,-0.7328,-0.7337,-0.734,-0.7345,-0.734,-0.7331,-0.7337,-0.7304,-0.7339,-0.7339,-0.7338,-0.7338,-0.7338,-0.6932,-0.6953,-0.6988,-0.7022,-0.7046,-0.7073,-0.7096,-0.7119,-0.7148,-0.7185,-0.7198,-0.7232,-0.7262,-0.7308,-0.7327,-0.7353,-0.7352,-0.736,-0.7361,-0.7363,-0.7363,-0.7327,-0.7359,-0.7359,-0.7359,-0.7359,-0.7359,0,-0.6957,-0.698,-0.7011,-0.7052,-0.7078,-0.7086,-0.7118,-0.7139,-0.717,-0.7198,-0.7226,-0.7264,-0.7295,-0.7322,-0.7355,-0.737,-0.7375,-0.7378,-0.7377,-0.7381,-0.7361,-0.7354,-0.7373,-0.7373,-0.7373,-0.7373,-0.7373,-0.7373,-0.6973,-0.701,-0.7026,-0.7075,-0.7098,-0.7133,-0.7151,-0.7175,-0.7198,-0.724,-0.7267,-0.7285,-0.7313,-0.7347,-0.7376,-0.7383,-0.7394,-0.7395,-0.7403,-0.7384,-0.7382,-0.7381,-0.7374,-0.7397,-0.7397,-0.7421,-0.7422,-0.7422]},{"header":{"parameterUnit":"m.s-1","parameterCategory":1,"la1":30.2991,"la2":30.254,"lo1":-89.0895,"lo2":-89.0444,"dy":0.0017,"dx":0.0017,"nx":28,"ny":28,"refTime":"2024-08-15T03:00:00:Z","depth":0,"parameterNumber":3,"parameterNumberName":"V-component_of_WINDS"},"data":[0,0,0,0,0,0,0,0,0,0,0,0,0,0,0,0,0,0,0,0,0,0,0,0,0,0,0,0,0,0,0,0,0,0,0,0,0,0,0,0,0,0,0,0,0,0,0,0,0,0,0,0,0,0,0,0,0,0,-1.558,-1.5582,0,-1.5691,-1.5692,-1.5693,-1.5712,-1.5711,-1.571,-1.5709,-1.5822,-1.5826,-1.583,0,0,0,0,0,0,0,0,0,0,0,0,0,-1.5388,-1.5392,-1.558,-1.5582,-1.5583,-1.5691,-1.5692,-1.5694,-1.5712,-1.5711,-1.571,-1.5709,-1.5821,-1.5826,-1.583,0,0,0,0,0,0,0,0,0,0,0,0,0,-1.5483,-1.5393,-1.558,-1.5605,-1.5609,-1.569,-1.5692,-1.5694,-1.5713,-1.5711,-1.571,-1.5708,-1.582,-1.5825,-1.5831,-1.5895,0,0,-1.5849,-1.5851,0,0,0,0,0,0,0,0,-1.5477,-1.549,-1.56,-1.5604,-1.5608,-1.5686,-1.5666,-1.5761,-1.5713,-1.5673,-1.5709,-1.5708,-1.5778,-1.5787,-1.5811,-1.59,-1.5905,-1.5849,-1.5853,-1.5855,-1.5857,0,0,0,0,0,0,0,-1.5471,-1.5485,-1.5624,-1.5602,-1.5606,-1.5612,-1.5624,-1.5684,-1.5732,-1.5676,-1.5678,-1.5691,-1.578,-1.5805,-1.5814,-1.5907,-1.5849,-1.5854,-1.5858,-1.586,-1.6057,-1.6059,0,0,0,0,0,0,-1.5459,-1.5479,-1.5621,-1.5627,-1.5538,-1.5617,-1.563,-1.5662,-1.5732,-1.5741,-1.5692,-1.5691,-1.5796,-1.5807,-1.5818,-1.59,-1.5855,-1.5861,-1.5864,-1.6056,-1.6058,-1.606,0,0,0,0,0,0,-1.5455,-1.5472,-1.5616,-1.5554,-1.5573,-1.5621,-1.5658,-1.5665,-1.5691,-1.5743,-1.5752,-1.5709,-1.5796,-1.581,-1.5876,-1.5904,-1.5863,-1.5869,-1.6054,-1.6056,-1.6059,-1.6062,0,0,0,0,0,0,-1.545,-1.547,-1.5494,-1.5554,-1.5576,-1.5672,-1.566,-1.5669,-1.5701,-1.5701,-1.5762,-1.577,-1.5796,-1.5868,-1.5882,-1.5911,-1.5873,-1.6051,-1.6055,-1.6058,-1.606,-1.6065,-1.6069,0,0,0,0,0,-1.5443,-1.549,-1.5495,-1.5512,-1.5607,-1.5674,-1.5686,-1.5714,-1.5703,-1.5728,-1.5763,-1.5768,-1.5898,-1.5874,-1.5891,-1.5922,-1.605,-1.6054,-1.6058,-1.6058,-1.6064,-1.6069,0,0,0,0,0,0,-1.5431,-1.5498,-1.5505,-1.5573,-1.5618,-1.5677,-1.5709,-1.5719,-1.5767,-1.5765,-1.5798,-1.5812,-1.5877,-1.5906,-1.5878,-1.5989,-1.5973,-1.5981,-1.5968,-1.5974,-1.5978,-1.597,-1.5878,0,0,0,0,0,-1.5437,-1.5485,-1.5541,-1.5596,-1.5618,-1.566,-1.569,-1.5708,-1.5755,-1.5774,-1.5813,-1.5859,-1.5911,-1.5944,-1.5994,-1.6064,-1.6079,-1.6094,-1.6098,-1.6102,-1.6108,-1.615,-1.6158,-1.6073,-1.6073,-1.6072,0,0,-1.5448,-1.5491,-1.5519,-1.5595,-1.5631,-1.5681,-1.5675,-1.5728,-1.5766,-1.5782,-1.5848,-1.5878,-1.5932,-1.6002,-1.6034,-1.6028,-1.6135,-1.6107,-1.6109,-1.6114,-1.6155,-1.6163,-1.617,-1.6075,-1.6075,-1.6074,0,0,-1.5496,-1.5532,-1.5583,-1.562,-1.5676,-1.5704,-1.5717,-1.5775,-1.5796,-1.5863,-1.5877,-1.5923,-1.601,-1.6049,-1.608,-1.6145,-1.6153,-1.616,-1.6183,-1.6224,-1.6231,-1.6237,-1.6262,-1.6271,-1.6166,-1.6166,-1.6166,0,-1.5503,-1.5579,-1.5608,-1.5661,-1.5695,-1.5713,-1.5766,-1.58,-1.587,-1.5893,-1.5885,-1.5997,-1.6034,-1.6114,-1.6131,-1.6154,-1.6171,-1.6153,-1.6227,-1.6234,-1.624,-1.6265,-1.6274,-1.6167,-1.6167,-1.6167,-1.6166,0,-1.5587,-1.5639,-1.5674,-1.5742,-1.5779,-1.5832,-1.587,-1.5905,-1.592,-1.5949,-1.6019,-1.6064,-1.6125,-1.6145,-1.616,-1.6229,-1.6223,-1.6221,-1.6206,-1.6249,-1.6272,-1.6282,-1.6168,-1.6167,-1.6167,-1.6167,0,0,-1.5629,-1.5714,-1.5726,-1.5758,-1.5823,-1.5864,-1.5918,-1.5979,-1.6009,-1.6057,-1.6104,-1.6179,-1.6178,-1.6214,-1.6233,-1.6269,-1.6321,-1.6263,-1.6264,-1.6273,-1.6402,-1.6404,-1.6414,-1.6326,-1.6328,-1.6329,-1.6398,0,-1.5685,-1.5783,-1.5812,-1.5894,-1.5944,-1.5963,-1.6011,-1.6056,-1.6086,-1.6133,-1.6166,-1.6219,-1.6213,-1.6235,-1.6271,-1.6306,-1.6347,-1.6302,-1.6372,-1.6374,-1.636,-1.6427,-1.6429,-1.6491,-1.6407,-1.6409,-1.641,0,-1.5763,-1.5814,-1.5902,-1.5962,-1.5985,-1.6027,-1.6086,-1.6131,-1.6183,-1.6202,-1.6243,-1.626,-1.632,-1.6301,-1.6384,-1.6353,-1.6383,-1.6405,-1.6409,-1.6417,-1.6395,-1.6439,-1.6511,-1.6521,-1.6424,-1.6423,-1.6422,0,-1.5788,-1.5878,-1.5943,-1.5969,-1.6041,-1.6071,-1.6102,-1.6153,-1.6189,-1.6241,-1.6264,-1.6322,-1.6354,-1.6398,-1.6431,-1.6414,-1.6513,-1.6496,-1.6531,-1.6531,-1.6552,-1.655,-1.6632,-1.6569,-1.6569,-1.6569,-1.6568,0,-1.5849,-1.5902,-1.5955,-1.5995,-1.6056,-1.609,-1.615,-1.6182,-1.6228,-1.6276,-1.6295,-1.6339,-1.638,-1.643,-1.6456,-1.6522,-1.6536,-1.6554,-1.6561,-1.6553,-1.6551,-1.6575,-1.6572,-1.6571,-1.657,-1.657,-1.657,0,-1.5886,-1.5924,-1.5996,-1.6059,-1.6076,-1.6119,-1.6173,-1.6213,-1.6244,-1.6304,-1.632,-1.6369,-1.6429,-1.6467,-1.6543,-1.6561,-1.6634,-1.6638,-1.6617,-1.662,-1.6654,-1.6651,-1.6755,-1.6771,-1.6695,-1.6696,-1.6697,0,-1.5923,-1.5965,-1.6033,-1.6066,-1.6098,-1.6152,-1.6189,-1.6224,-1.6262,-1.6326,-1.6359,-1.6421,-1.6473,-1.6569,-1.6611,-1.667,-1.6677,-1.6709,-1.6686,-1.6678,-1.668,-1.6678,-1.6683,-1.6713,-1.6714,-1.6715,-1.6715,0,-1.5985,-1.6002,-1.6054,-1.6114,-1.6158,-1.6206,-1.6255,-1.6281,-1.6325,-1.6367,-1.6429,-1.6469,-1.6548,-1.661,-1.6673,-1.6707,-1.6719,-1.6722,-1.6734,-1.6727,-1.6714,-1.6724,-1.6629,-1.672,-1.6719,-1.6719,-1.6719,-1.6718,-1.6025,-1.6064,-1.6119,-1.6177,-1.6218,-1.6263,-1.6305,-1.6342,-1.6395,-1.6462,-1.648,-1.6546,-1.6601,-1.6687,-1.6722,-1.6775,-1.677,-1.6786,-1.6791,-1.6795,-1.6797,-1.6705,-1.6786,-1.6786,-1.6786,-1.6786,-1.6786,0,-1.609,-1.6126,-1.618,-1.6248,-1.6294,-1.6302,-1.6357,-1.6396,-1.6454,-1.6503,-1.6554,-1.6628,-1.6688,-1.6736,-1.6799,-1.6833,-1.684,-1.6848,-1.6847,-1.6855,-1.6796,-1.6781,-1.6841,-1.6841,-1.6841,-1.6841,-1.6841,-1.6841,-1.6129,-1.6196,-1.6221,-1.631,-1.6346,-1.6412,-1.6443,-1.6486,-1.6526,-1.6607,-1.6658,-1.6689,-1.6739,-1.6806,-1.6863,-1.6876,-1.6899,-1.6906,-1.692,-1.6865,-1.6859,-1.6853,-1.6839,-1.691,-1.691,-1.6975,-1.6975,-1.6976]}]]